Find Starlink 2521

NORAD ID: 48648 Int'l Des: 2021-044 Owner: SPXS Country: US Constellation: starlink operational
LEOCIRCULAR

Live Position

Loading 3D Globe...

About Starlink 2521

Description loading...

Upcoming Passes

Passes for default location (London). Set your location on the main map for personalized predictions.

Altitude History

Loading altitude history...

Two-Line Element Set

1 48648U 21044L 26125.51719301 .00001961 00000-0 74939-4 0 9997
2 48648 53.1602 209.7854 0001414 96.3764 263.7399 15.31709509272537
Epoch: May 5, 2026 • Age: 9 hours

Current Status

Altitude 472.4 km
Velocity 7.63 km/s
Sub-Earth Point -5.21°S, 147.53°W
Launch Date May 26, 2021
Age 4.9 years
Type internet

Technical Details

Classification Payload
Mass 260.00 kg
Dry Mass 248.00 kg
Total Mass 260.00 kg
Length 0.20 m
Diameter 2.80 m
Span 9.00 m
Shape Box + pan
Manufacturer SPXS
Bus Type Starlink
Phase Status In Orbit
Owner/State SPXS/US

Most Searched